TimePST,TemperatureF,Dew PointF,Humidity,Sea Level PressureIn,VisibilityMPH,Wind Direction,Wind SpeedMPH,Gust SpeedMPH,PrecipitationIn,Events,Conditions,WindDirDegrees,DateUTC
12:52 AM,57.0,35.1,44,30.19,10.0,Calm,Calm,-,N/A,,Clear,0,2013-03-02 08:52:00
1:52 AM,55.9,36.0,47,30.18,10.0,Calm,Calm,-,N/A,,Clear,0,2013-03-02 09:52:00
2:52 AM,55.9,39.0,53,30.17,10.0,Calm,Calm,-,N/A,,Clear,0,2013-03-02 10:52:00
3:52 AM,55.0,34.0,45,30.16,10.0,Calm,Calm,-,N/A,,Clear,0,2013-03-02 11:52:00
4:52 AM,55.0,37.0,51,30.16,10.0,Calm,Calm,-,N/A,,Clear,0,2013-03-02 12:52:00
5:52 AM,55.0,39.0,55,30.16,10.0,Calm,Calm,-,N/A,,Clear,0,2013-03-02 13:52:00
6:52 AM,55.9,37.9,51,30.17,10.0,North,4.6,-,N/A,,Partly Cloudy,350,2013-03-02 14:52:00
7:52 AM,66.0,34.0,30,30.18,10.0,Calm,Calm,-,N/A,,Partly Cloudy,0,2013-03-02 15:52:00
8:52 AM,72.0,28.9,20,30.18,10.0,Calm,Calm,-,N/A,,Partly Cloudy,0,2013-03-02 16:52:00
9:52 AM,80.1,26.1,14,30.17,10.0,Calm,Calm,-,N/A,,Scattered Clouds,0,2013-03-02 17:52:00
10:52 AM,84.0,25.0,12,30.17,10.0,Calm,Calm,-,N/A,,Scattered Clouds,0,2013-03-02 18:52:00
11:52 AM,84.0,23.0,11,30.15,10.0,WNW,9.2,-,N/A,,Scattered Clouds,290,2013-03-02 19:52:00
12:52 PM,82.9,23.0,11,30.13,10.0,WNW,9.2,-,N/A,,Mostly Cloudy,300,2013-03-02 20:52:00
1:52 PM,81.0,24.1,12,30.11,10.0,WNW,5.8,-,N/A,,Mostly Cloudy,290,2013-03-02 21:52:00
2:52 PM,80.1,25.0,13,30.10,10.0,WNW,6.9,-,N/A,,Mostly Cloudy,290,2013-03-02 22:52:00
3:52 PM,75.9,25.0,15,30.09,10.0,West,6.9,-,N/A,,Mostly Cloudy,270,2013-03-02 23:52:00
4:52 PM,73.9,30.0,20,30.09,10.0,WNW,6.9,-,N/A,,Mostly Cloudy,290,2013-03-03 00:52:00
5:52 PM,70.0,34.0,27,30.09,10.0,NNW,3.5,-,N/A,,Mostly Cloudy,340,2013-03-03 01:52:00
6:52 PM,63.0,42.1,46,30.10,10.0,Calm,Calm,-,N/A,,Scattered Clouds,0,2013-03-03 02:52:00
7:52 PM,60.1,48.9,67,30.11,10.0,SE,3.5,-,N/A,,Clear,130,2013-03-03 03:52:00
8:52 PM,59.0,50.0,72,30.12,10.0,Calm,Calm,-,N/A,,Clear,0,2013-03-03 04:52:00
9:52 PM,59.0,48.0,67,30.12,10.0,Calm,Calm,-,N/A,,Scattered Clouds,0,2013-03-03 05:52:00
10:52 PM,57.0,46.0,67,30.10,10.0,Calm,Calm,-,N/A,,Mostly Cloudy,0,2013-03-03 06:52:00
11:52 PM,57.9,44.1,60,30.10,10.0,Calm,Calm,-,N/A,,Mostly Cloudy,0,2013-03-03 07:52:00